| time (UTC) | temp F | wind direction | speed MPH | gust MPH | rain 1hr in | rain 24hr in | rain mn in | humidity % | barometer mb |
| 20260508121545 | 72 | 233 | 0.0 | 0.0 | 0.00 | 0.16 | 0.00 | 52 | 1012.4 |
| 20260508120040 | 72 | 242 | 0.0 | 0.0 | 0.00 | 0.16 | 0.00 | 55 | 1012.5 |
| 20260508114539 | 72 | 275 | 0.0 | 0.0 | 0.00 | 0.16 | 0.00 | 55 | 1012.5 |
| 20260508113040 | 72 | 86 | 0.0 | 0.0 | 0.00 | 0.16 | 0.00 | 53 | 1012.6 |
| 20260508111540 | 72 | 219 | 0.0 | 0.0 | 0.00 | 0.16 | 0.00 | 57 | 1012.7 |
| 20260508110036 | 72 | 302 | 0.0 | 0.0 | 0.00 | 0.16 | 0.00 | 57 | 1012.7 |
| 20260508104534 | 70 | 90 | 0.0 | 0.0 | 0.00 | 0.16 | 0.00 | 54 | 1012.9 |
| 20260508103043 | 70 | 75 | 0.0 | 0.0 | 0.00 | 0.16 | 0.00 | 60 | 1012.9 |
| 20260508101532 | 69 | 86 | 0.0 | 0.0 | 0.00 | 0.16 | 0.00 | 61 | 1013.0 |
| 20260508100036 | 69 | 84 | 0.0 | 0.0 | 0.00 | 0.16 | 0.00 | 64 | 1013.0 |
| 20260508094527 | 67 | 64 | 0.0 | 0.0 | 0.00 | 0.16 | 0.00 | 64 | 1013.3 |
| 20260508093034 | 67 | 96 | 0.0 | 0.0 | 0.00 | 0.16 | 0.00 | 67 | 1013.4 |
| 20260508091527 | 67 | 88 | 0.0 | 0.0 | 0.00 | 0.16 | 0.00 | 67 | 1013.4 |
| 20260508090026 | 66 | 84 | 0.0 | 0.0 | 0.00 | 0.16 | 0.00 | 68 | 1013.3 |
| 20260508084522 | 65 | 90 | 0.0 | 0.0 | 0.00 | 0.16 | 0.00 | 70 | 1013.3 |
| 20260508083022 | 65 | 61 | 0.0 | 0.0 | 0.00 | 0.16 | 0.00 | 71 | 1013.3 |
| 20260508081521 | 66 | 65 | 0.0 | 0.0 | 0.00 | 0.16 | 0.00 | 70 | 1013.3 |
| 20260508080019 | 66 | 59 | 0.0 | 0.0 | 0.00 | 0.16 | 0.00 | 70 | 1013.3 |
| 20260508074519 | 65 | 76 | 0.0 | 0.0 | 0.00 | 0.16 | 0.00 | 73 | 1013.4 |
| 20260508073014 | 64 | 78 | 0.0 | 0.0 | 0.00 | 0.16 | 0.00 | 74 | 1013.3 |
| 20260508071515 | 62 | 90 | 0.0 | 0.0 | 0.00 | 0.16 | 0.00 | 76 | 1013.4 |
| 20260508070010 | 61 | 96 | 0.0 | 0.0 | 0.00 | 0.16 | 0.00 | 78 | 1013.3 |
| 20260508064510 | 61 | 83 | 0.0 | 0.0 | 0.00 | 0.16 | 0.00 | 77 | 1013.4 |
| 20260508063005 | 61 | 60 | 0.0 | 0.0 | 0.00 | 0.16 | 0.00 | 77 | 1013.3 |
| 20260508061504 | 61 | 86 | 0.0 | 0.0 | 0.00 | 0.16 | 0.00 | 76 | 1013.1 |
| 20260508060130 | 60 | 98 | 0.0 | 0.0 | 0.00 | 0.16 | 0.00 | 81 | 1012.8 |
| 20260508054640 | 58 | 61 | 0.0 | 0.0 | 0.00 | 0.16 | 0.00 | 80 | 1012.8 |
| 20260508053056 | 58 | 92 | 0.0 | 0.0 | 0.00 | 0.16 | 0.00 | 76 | 1012.8 |
| 20260508051554 | 58 | 63 | 0.0 | 0.0 | 0.00 | 0.16 | 0.00 | 76 | 1012.6 |
| 20260508050054 | 56 | 62 | 0.0 | 0.0 | 0.00 | 0.16 | 0.00 | 78 | 1012.6 |
| 20260508044554 | 56 | 62 | 0.0 | 0.0 | 0.00 | 0.16 | 0.00 | 79 | 1012.5 |
| 20260508043058 | 55 | 62 | 0.0 | 0.0 | 0.00 | 0.16 | 0.00 | 80 | 1012.4 |
| 20260508041553 | 55 | 62 | 0.0 | 0.0 | 0.00 | 0.16 | 0.00 | 80 | 1012.3 |
| 20260508040052 | 55 | 62 | 0.0 | 0.0 | 0.00 | 0.16 | 0.00 | 80 | 1012.1 |
| 20260508034552 | 55 | 61 | 0.0 | 0.0 | 0.00 | 0.16 | 0.00 | 80 | 1012.2 |
| 20260508033048 | 55 | 61 | 0.0 | 0.0 | 0.00 | 0.16 | 0.00 | 79 | 1012.3 |
| 20260508031552 | 55 | 69 | 0.0 | 0.0 | 0.00 | 0.16 | 0.00 | 78 | 1012.2 |
| 20260508030047 | 56 | 72 | 0.0 | 0.0 | 0.00 | 0.16 | 0.00 | 78 | 1012.3 |
| 20260508024556 | 56 | 72 | 0.0 | 0.0 | 0.00 | 0.16 | 0.00 | 78 | 1012.4 |
| 20260508023044 | 56 | 72 | 0.0 | 0.0 | 0.00 | 0.16 | 0.00 | 79 | 1012.6 |
| 20260508021544 | 56 | 72 | 0.0 | 0.0 | 0.00 | 0.16 | 0.00 | 79 | 1012.6 |
| 20260508020049 | 56 | 72 | 0.0 | 0.0 | 0.00 | 0.16 | 0.00 | 79 | 1012.6 |
| 20260508014545 | 56 | 72 | 0.0 | 0.0 | 0.00 | 0.16 | 0.00 | 79 | 1012.6 |
| 20260508013040 | 56 | 73 | 0.0 | 0.0 | 0.00 | 0.16 | 0.00 | 80 | 1012.7 |
| 20260508011539 | 56 | 73 | 0.0 | 0.0 | 0.00 | 0.16 | 0.00 | 79 | 1012.8 |
| 20260508010047 | 56 | 73 | 0.0 | 0.0 | 0.00 | 0.16 | 0.00 | 79 | 1012.6 |
| 20260508004537 | 56 | 73 | 0.0 | 0.0 | 0.00 | 0.16 | 0.00 | 79 | 1012.6 |
| 20260508003039 | 56 | 74 | 0.0 | 0.0 | 0.00 | 0.16 | 0.00 | 79 | 1012.7 |
| 20260508001534 | 57 | 74 | 0.0 | 0.0 | 0.00 | 0.16 | 0.00 | 78 | 1012.6 |
| 20260508000033 | 57 | 74 | 0.0 | 0.0 | 0.00 | 0.16 | 0.00 | 77 | 1012.7 |
| 20260507234532 | 58 | 74 | 0.0 | 0.0 | 0.00 | 0.16 | 0.00 | 77 | 1012.7 |
| 20260507233031 | 58 | 78 | 0.0 | 0.0 | 0.00 | 0.16 | 0.00 | 77 | 1012.6 |
| 20260507231531 | 58 | 72 | 0.0 | 0.0 | 0.00 | 0.16 | 0.00 | 77 | 1012.8 |
| 20260507230035 | 58 | 61 | 0.0 | 0.0 | 0.00 | 0.16 | 0.00 | 77 | 1013.0 |
| 20260507224528 | 58 | 74 | 0.0 | 0.0 | 0.00 | 0.16 | 0.00 | 77 | 1012.8 |
| 20260507223026 | 58 | 59 | 0.0 | 0.0 | 0.00 | 0.16 | 0.00 | 77 | 1012.8 |
| 20260507221523 | 58 | 56 | 0.0 | 0.0 | 0.00 | 0.16 | 0.00 | 78 | 1012.5 |
| 20260507220021 | 58 | 56 | 0.0 | 0.0 | 0.00 | 0.16 | 0.16 | 78 | 1012.6 |
| 20260507214521 | 59 | 55 | 0.0 | 0.0 | 0.00 | 0.16 | 0.16 | 78 | 1012.6 |
| 20260507213020 | 59 | 61 | 0.0 | 0.0 | 0.00 | 0.16 | 0.16 | 78 | 1012.5 |
| 20260507211533 | 59 | 61 | 0.0 | 0.0 | 0.00 | 0.16 | 0.16 | 78 | 1012.4 |
| 20260507210019 | 59 | 61 | 0.0 | 0.0 | 0.00 | 0.16 | 0.16 | 78 | 1012.5 |
| 20260507204522 | 60 | 61 | 0.0 | 0.0 | 0.00 | 0.16 | 0.16 | 78 | 1012.4 |
| 20260507203021 | 59 | 69 | 0.0 | 0.0 | 0.00 | 0.16 | 0.16 | 78 | 1012.4 |
| 20260507201517 | 59 | 55 | 0.0 | 0.0 | 0.00 | 0.16 | 0.16 | 78 | 1012.3 |
| 20260507200015 | 59 | 85 | 0.0 | 0.0 | 0.00 | 0.16 | 0.16 | 78 | 1012.2 |
| 20260507194514 | 59 | 82 | 0.0 | 0.0 | 0.00 | 0.16 | 0.16 | 78 | 1012.0 |
| 20260507193012 | 60 | 81 | 0.0 | 0.0 | 0.00 | 0.16 | 0.16 | 78 | 1011.7 |
| 20260507191511 | 60 | 71 | 0.0 | 0.0 | 0.00 | 0.16 | 0.16 | 79 | 1011.6 |
| 20260507190010 | 61 | 70 | 0.0 | 0.0 | 0.00 | 0.16 | 0.16 | 78 | 1011.3 |
| 20260507184507 | 62 | 79 | 0.0 | 0.0 | 0.00 | 0.16 | 0.16 | 75 | 1011.1 |
| 20260507183006 | 62 | 77 | 0.0 | 0.0 | 0.00 | 0.16 | 0.16 | 74 | 1010.9 |
| 20260507181504 | 63 | 96 | 0.0 | 0.0 | 0.00 | 0.16 | 0.16 | 74 | 1010.7 |
| 20260507180001 | 64 | 93 | 0.0 | 0.0 | 0.00 | 0.16 | 0.16 | 73 | 1010.3 |
| 20260507174503 | 64 | 71 | 0.0 | 0.0 | 0.00 | 0.16 | 0.16 | 72 | 1010.2 |
| 20260507173104 | 65 | 84 | 0.0 | 0.0 | 0.00 | 0.16 | 0.16 | 70 | 1010.0 |
| 20260507171612 | 66 | 136 | 0.0 | 0.0 | 0.00 | 0.16 | 0.16 | 67 | 1009.9 |
| 20260507170100 | 67 | 144 | 0.0 | 0.0 | 0.00 | 0.16 | 0.16 | 67 | 1010.0 |
| 20260507164602 | 67 | 163 | 0.0 | 0.0 | 0.00 | 0.16 | 0.16 | 65 | 1010.0 |
| 20260507163158 | 67 | 71 | 0.0 | 1.0 | 0.00 | 0.16 | 0.16 | 61 | 1009.8 |
| 20260507161602 | 67 | 107 | 0.0 | 0.0 | 0.00 | 0.16 | 0.16 | 54 | 1009.8 |
| 20260507160058 | 69 | 114 | 0.0 | 0.0 | 0.00 | 0.16 | 0.16 | 55 | 1009.7 |
| 20260507154556 | 67 | 82 | 0.0 | 6.0 | 0.00 | 0.16 | 0.16 | 60 | 1009.7 |
| 20260507153103 | 69 | 157 | 0.0 | 6.0 | 0.00 | 0.16 | 0.16 | 61 | 1009.5 |
| 20260507151555 | 70 | 11 | 0.0 | 0.0 | 0.00 | 0.16 | 0.16 | 55 | 1009.2 |
| 20260507150055 | 70 | 10 | 0.0 | 0.0 | 0.00 | 0.24 | 0.16 | 56 | 1009.1 |
| 20260507144555 | 68 | 317 | 0.0 | 0.0 | 0.11 | 0.24 | 0.16 | 68 | 1009.0 |
| 20260507143055 | 67 | 57 | 0.0 | 0.0 | 0.16 | 0.24 | 0.16 | 68 | 1009.0 |
| 20260507141556 | 65 | 65 | 0.0 | 0.0 | 0.16 | 0.24 | 0.16 | 76 | 1009.1 |
| 20260507140104 | 60 | 45 | 0.0 | 0.0 | 0.16 | 0.37 | 0.16 | 82 | 1009.6 |
| 20260507134552 | 68 | 255 | 2.0 | 16.0 | 0.03 | 0.24 | 0.03 | 64 | 1010.1 |
| 20260507133055 | 70 | 244 | 0.0 | 0.0 | 0.00 | 0.21 | 0.00 | 55 | 1009.2 |
| 20260507131549 | 70 | 251 | 0.0 | 1.0 | 0.00 | 0.21 | 0.00 | 53 | 1009.2 |
| 20260507124611 | 72 | 246 | 0.0 | 5.0 | 0.00 | 0.23 | 0.00 | 53 | 1009.3 |
| 20260507123048 | 73 | 247 | 0.0 | 0.0 | 0.00 | 0.23 | 0.00 | 53 | 1009.3 |